Location: New Plymouth
(39.0670°S, 174.0830°E)
Time: 20:17:34
(UTC+12:00)

STRAND 1 - Pass Details

Date: 01 September 2019
Orbit: 768 x 781 km, 98.5° (Epoch: 19 September)

Event Time Altitude Azimuth Distance (km) Brightness Sun altitude
Rises 20:34:01 0° 324° (NW) 3,256 ? -30.3°
Reaches altitude 10° 20:37:47 10° 295° (WNW) 2,344 ? -31.0°
Maximum altitude 20:39:58 13° 270° (W) 2,170 ? -31.4°
Drops below altitude 10° 20:42:11 10° 244° (WSW) 2,360 ? -31.8°
Sets 20:46:02 0° 216° (SW) 3,301 ? -32.5°
